Volver al catálogo

COSMOS 1867 COOLANT

ActivoLEO
NORAD 39671·DEBRIS·🇷🇺 Russia

Lanzado Jul 10, 1987 desde Baikonur Cosmodrome

Loading…

Próximos Pases (próximas 24 horas)

TLE

ActualizadoSource: Space-Track

Época: Sep 14, 2026, 05:39 UTC

1 39671U 87060AJ  26257.23558917  .00000171  00000-0  96005-4 0  9992
2 39671  65.0099 118.5270 0018973 280.4432  79.4516 14.34463120649427

Sigue COSMOS 1867 COOLANT en tiempo real con AllMySat

Download on the App Store